Location: Unspecified
(0.0000°N, 0.0000°E)
Time: 19:06:41
(UTC+00:00)

deb Briz - Pass Details

Date: 21 February 2026
Orbit: 1683 x 2323 km, 64.7° (Epoch: 11 March)

Event Time Altitude Azimuth Distance (km) Brightness Sun altitude
Rises 05:17:01 0° 350° (N) 5,266 ? -13.9°
Reaches altitude 10° 05:20:32 10° 355° (N) 4,192 ? -13.0°
Maximum altitude 05:30:29 50° 68° (ENE) 2,113 ? -10.6°
Drops below altitude 10° 05:39:47 10° 141° (SE) 3,949 ? -8.3°
Sets 05:42:57 0° 146° (SE) 4,939 ? -7.5°
